Temp
11 11 11 11 10 10 10 10 10 9 9 8 8 8 7 7 6 6 5 4 4 4
11 11 11 11 10 10 10 10 10 9 9 8 8 7 7 7 6 6 5 4 4 4
12 11 11 11 11 11 11 10 10 9 9 8 8 7 7 6 6 5 5 4 4 4
11 11 11 10 11 11 10 10 10 10 9 9 8 8 7 7 6 5 5 4 4 4
11 11 11 11 11 10 10 10 10 10 9 9 9 8 7 7 6 6 5 5 4 4
10 10 10 10 10 10 9 9 9 9 9 9 8 8 8 7 7 6 5 5 4 4
10 9 9 9 9 9 9 9 9 8 8 8 8 8 7 7 7 6 6 5 5 4
8 8 8 8 8 8 8 8 8 7 7 7 7 7 7 6 6 6 6 6 5 4
7 7 7 7 7 7 7 7 7 7 6 6 6 6 6 5 5 5 5 5 5 4
6 6 6 5 5 6 6 6 6 6 6 6 6 6 6 5 4 4 4 5 5 4
5 4 4 4 4 4 4 4 3 4 4 4 4 5 5 5 4 3 3 4 5 4
4 4 3 3 3 3 3 2 2 2 2 3 3 4 4 4 3 3 3 3 4 4
4 3 3 2 2 2 2 1 1 1 1 1 1 3 3 2 2 2 2 1 2 2
3 3 2 2 2 2 1 1 0 -0 0 0 1 1 2 2 1 1 1 1 0 1
Height
809 809 809 809 809 808 808 807 807 805 804 802 802 801 801 800 799 798 797 796 795 795
805 805 806 806 806 805 804 803 802 801 799 799 798 798 798 796 795 795 794 793 792 791
803 803 803 803 802 801 800 800 798 796 795 794 793 793 793 792 792 791 790 789 788 787
802 801 801 799 798 797 795 793 791 790 788 787 787 786 786 785 785 785 784 784 783 781
801 799 797 796 794 792 789 787 784 782 780 778 777 777 776 775 774 774 774 774 775 774
800 798 796 794 791 789 786 783 780 777 774 772 770 769 768 767 767 767 766 766 767 767
800 797 795 792 789 785 782 778 774 771 767 764 762 759 758 757 756 756 756 758 758 758
800 797 794 790 786 782 779 775 771 766 762 759 757 754 752 750 749 748 748 749 749 750
798 794 790 786 782 778 774 770 766 762 758 754 750 747 745 742 739 737 737 737 739 740
794 790 786 782 778 774 769 765 760 755 752 747 743 739 736 733 730 728 726 727 728 730
792 787 783 778 774 769 765 760 755 750 746 740 735 732 727 724 720 718 716 717 718 720
787 783 779 774 769 765 759 754 749 745 739 734 727 723 719 716 712 708 705 707 709 711
785 780 774 769 764 759 755 749 744 737 733 727 719 715 711 709 705 701 698 698 699 701
780 775 770 765 760 755 749 743 737 730 724 719 714 707 703 700 697 694 693 692 691 693
Wind_Speed
22 22 23 23 23 23 23 22 19 19 20 20 19 18 17 16 15 14 14 13 12 12
17 20 22 22 22 24 24 23 22 21 22 21 21 21 20 19 19 17 16 16 14 15
13 14 17 20 21 23 24 24 25 25 24 24 23 23 22 22 21 20 19 18 17 16
14 14 15 17 20 22 24 24 25 26 27 27 27 26 26 26 24 23 23 21 21 20
14 14 14 16 18 19 21 23 24 26 27 28 29 29 29 30 29 28 27 26 23 24
17 17 18 19 20 20 22 23 25 26 28 28 29 31 33 33 32 31 30 29 26 26
20 21 21 21 22 22 22 24 25 26 27 28 28 30 32 35 35 34 33 32 30 29
23 24 25 26 27 27 27 27 27 27 28 29 30 32 33 34 36 36 35 34 33 31
27 29 29 30 31 31 32 32 31 31 30 30 31 33 33 33 35 35 37 38 35 33
30 32 33 33 33 34 33 33 32 33 33 34 32 31 31 30 32 36 37 37 37 34
31 32 34 35 35 36 35 35 36 36 36 38 38 35 32 30 30 34 39 38 37 34
33 34 34 33 33 35 35 34 36 36 38 38 40 37 34 31 29 31 37 40 38 34
32 33 33 34 36 37 37 35 34 35 35 38 37 37 35 29 29 28 28 29 36 34
33 34 34 33 34 35 36 35 34 33 32 34 37 38 34 29 27 28 25 25 26 31
Wind_Direction
272 273 276 278 278 279 282 289 292 286 281 277 273 273 274 275 277 277 272 268 266 260
287 276 280 287 286 285 287 291 293 289 285 280 275 274 273 272 273 273 273 270 268 262
324 302 293 294 294 294 295 295 294 292 288 284 278 275 271 271 272 269 268 266 263 261
352 335 316 307 305 303 302 301 298 295 290 283 278 274 269 268 268 263 265 260 257 256
358 351 339 327 320 315 308 306 303 298 291 283 276 270 264 261 261 257 256 257 252 255
358 350 343 335 329 323 318 311 307 303 297 292 285 277 269 263 262 260 258 258 253 254
0 354 348 343 338 333 327 319 314 309 302 295 289 282 275 266 261 258 257 256 254 253
351 347 344 341 338 334 331 326 321 316 308 302 294 288 282 276 268 262 257 256 255 253
349 345 343 340 336 332 330 328 325 322 317 310 302 296 292 282 272 267 258 252 253 252
347 343 340 337 334 331 328 326 323 319 317 312 307 302 297 287 263 261 260 254 250 251
340 336 334 332 330 330 328 325 324 321 320 315 310 306 298 291 275 254 255 256 252 248
335 331 329 324 323 323 323 320 319 317 315 314 310 311 302 293 277 258 251 254 253 247
329 327 323 324 324 321 320 313 310 307 310 311 305 310 307 290 275 257 243 239 247 246
328 327 323 317 315 314 312 309 307 305 306 308 311 311 311 299 273 255 245 236 233 237